軌道要素
Epoch 2006 Mar. 6.0 TT = JDT 2453800.5
T 2006 Mar. 7.90556 TT Rudenko
q 1.7776384 (2000.0) P Q
n 0.06490671 Peri. 15.35929 -0.93064831 -0.32412933
a 6.1321060 Node 144.24830 +0.29758705 -0.94046631
e 0.7101096 Incl. 16.89548 +0.21292175 -0.10229022
P 15.2
From 570 observations 2005 Dec. 4-2020 Nov. 17, mean residual 0".5.
|